カタログに戻る

STARLINK-1271

運用中通信VLEO
NORAD 45217·PAYLOAD·🇺🇸 United States

打ち上げ Feb 17, 2020 から Cape Canaveral Space Force Station

Loading…

次のパス (今後24時間)

TLE

最新Source: CelesTrak SupGP

元期: Sep 14, 2026, 20:45 UTC

1 45217C 20012AR  26257.86506944  .00071950  00000+0  15766-2 0  2573
2 45217  53.1521 217.7923 0002106  94.2472  55.1437 15.43476487    11

AllMySatでSTARLINK-1271をリアルタイム追跡

Download on the App Store